This demonstration page uses our WeatherBlox Daily Observations layout. Learn more.

39.29038, -76.61219

Hourly Observations for April 5, 2019

Temp ( °F °C ) Dew Point ( °F °C ) Humidity (%) Winds ( mph kmh ) Pressure ( in mb ) Visibility ( mi km ) Precip ( " mm )
12:54 am 00:54 undefined 55 12.8 34 1.1 45 45 undefined N/A 30.37 1028 N/A 0 0
1:54 am 01:54 undefined 54 12.2 34 1.1 47 47 undefined N/A 30.36 1028 N/A 0 0
2:54 am 02:54 undefined 55 12.8 33 0.6 44 44 undefined N/A 30.36 1028 N/A 0 0
3:54 am 03:54 undefined 52 11.1 34 1.1 50 50 undefined N/A 30.37 1029 N/A 0 0
4:54 am 04:54 undefined 51 10.6 30 -1.1 44 44 undefined N/A 30.39 1029 N/A 0 0
5:54 am 05:54 undefined 51 10.6 26 -3.3 38 38 undefined N/A 30.39 1029 N/A 0 0
6:54 am 06:54 undefined 49 9.4 25 -3.9 39 39 undefined N/A 30.39 1029 N/A 0 0
7:54 am 07:54 undefined 49 9.4 23 -5 36 36 undefined N/A 30.41 1030 N/A 0 0
8:54 am 08:54 undefined 48 8.9 23 -5 37 37 undefined N/A 30.41 1030 N/A 0 0
9:54 am 09:54 undefined 47 8.3 24 -4.4 41 41 undefined N/A 30.4 1030 N/A 0 0
10:54 am 10:54 undefined 48 8.9 27 -2.8 44 44 undefined N/A 30.41 1030 N/A 0 0
11:54 am 11:54 undefined 49 9.4 30 -1.1 48 48 undefined N/A 30.39 1029 N/A 0 0
12:54 pm 12:54 undefined 49 9.4 34 1.1 56 56 undefined N/A 30.36 1028 N/A 0 0
1:54 pm 13:54 undefined 49 9.4 35 1.7 59 59 undefined N/A 30.32 1027 N/A 0 0
2:54 pm 14:54 undefined 49 9.4 36 2.2 61 61 undefined N/A 30.29 1026 N/A 0 0
3:54 pm 15:54 undefined 49 9.4 39 3.9 69 69 undefined N/A 30.26 1025 N/A 0 0
4:54 pm 16:54 undefined 48 8.9 40 4.4 74 74 undefined N/A 30.25 1024 N/A 0 0
5:54 pm 17:54 undefined 47 8.3 41 5 80 80 undefined N/A 30.26 1025 N/A 0.03 0.762
6:54 pm 18:54 undefined 46 7.8 41 5 83 83 undefined N/A 30.26 1025 N/A 0 0
7:54 pm 19:54 undefined 45 7.2 40 4.4 83 83 undefined N/A 30.24 1024 N/A 0 0
8:54 pm 20:54 undefined 45 7.2 40 4.4 83 83 undefined N/A 30.25 1024 N/A 0 0
9:54 pm 21:54 undefined 44 6.7 39 3.9 83 83 undefined N/A 30.25 1025 N/A 0 0
10:54 pm 22:54 undefined 44 6.7 40 4.4 85 85 undefined N/A 30.25 1024 N/A 0 0
11:54 pm 23:54 undefined 44 6.7 40 4.4 85 85 undefined N/A 30.24 1024 N/A 0 0

Powered by AerisWeather